Regional Weather Roundup
Issued by NWS Newport/Morehead, NC

Current Version | Previous Version | Graphics & Text | Print | Product List | Glossary On
Versions: 1 2 3 4 5 6 7 8 9 10 11 12 13 14 15 16 17 18 19 20 21 22 23 24 25 26 27 28 29 30 31 32 33 34 35 36 37 38 39 40 41 42 43 44 45 46 47 48 49 50
000
ASUS42 KMHX 221510
RWRMHX
WEATHER ROUNDUP FOR EASTERN NORTH CAROLINA
NATIONAL WEATHER SERVICE NEWPORT/MOREHEAD CITY NC
1100 AM EDT MON SEP 22 2014

NOTE: "FAIR" INDICATES FEW OR NO CLOUDS BELOW 12,000 FEET
WITH NO SIGNIFICANT WEATHER AND/OR OBSTRUCTIONS TO VISIBILITY

NCZ015>017-031-032-045>047-102-103-221600-
NORTH COAST

CITY           SKY/WX    TMP DP  RH WIND       PRES   REMARKS
EDENTON        PTSUNNY   75  56  51 N9G16     30.01R
ELIZABETH CITY PTSUNNY   76  57  51 NW12      30.00R
KITTY HAWK     MOSUNNY   77  59  54 N8G17     29.98R
MANTEO         MOSUNNY   76  60  56 N9G17     30.00R

$$

NCZ045>047-081-094-103-104-221600-
CENTRAL COAST

CITY           SKY/WX    TMP DP  RH WIND       PRES   REMARKS
FRISCO         SUNNY     76  69  79 VRB7      29.98R
SWANQUARTER      N/A     79 N/A N/A N2G14     29.94S

$$

NCZ095-097-098-100-101-221600-
SOUTHERN COAST

CITY           SKY/WX    TMP DP  RH WIND       PRES   REMARKS
BEAUFORT       SUNNY     80  63  55 N14       30.00R
CEDAR ISLAND     N/A     77 N/A N/A NW13G18   30.03S
JACKSONVILLE   MOSUNNY   77  57  50 N13       30.02R
NEWPORT        NOT AVBL
PINEY ISLAND   SUNNY     79  62  56 N14       30.00R
WILMINGTON     PTSUNNY   79  62  56 N10       30.03R


$$

NCZ011>013-027>030-043-044-078>080-089-090>093-098-221600-
COASTAL PLAIN

CITY           SKY/WX    TMP DP  RH WIND       PRES   REMARKS
AHOSKIE        SUNNY     71  52  50 N6        30.03S
CLINTON        CLOUDY    71  58  63 N3        30.05R
ELIZABETHTOWN  LGT RAIN  67  66  95 CALM      30.05S
GOLDSBORO      MOSUNNY   74  58  58 CALM      30.02R
GREENVILLE     SUNNY     73  55  53 NW10      30.05R
HAVELOCK       SUNNY     79  59  50 N13       30.01R
KENANSVILLE    CLOUDY    72  54  52 N8        30.05R
KINSTON        MOSUNNY   73  55  53 NW10      30.04R
NEW BERN       MOSUNNY   78  59  51 N8        30.02R
RICHLANDS      CLOUDY    75  55  50 N6        30.03R
ROANOKE RAPIDS NOT AVBL
ROCKY MOUNT    MOSUNNY   72  54  53 NW12      30.04R
WASHINGTON     MOSUNNY   74  58  56 NW10      30.03R
WHITEVILLE     LGT RAIN  69  60  74 N7        30.04S

$$

AMZ130-135-150-152-154-156-158-170-250-252-270-ANZ085-086-088-633-658-670-221600-
MARINE OBSERVATIONS

STATION/POSITION TIME  TEMP    WIND        PRES    WAVE   SWELL
                       AIR SEA DIR/SP/G            HT/PER HT/PER
                 (UTC) (F)     (DEG/KT/KT) (MB)    (FT/S) (FT/S)
CHESAPEAKE LIGHT 1400   71     350/ 18/ 20 1015.8
BUOY 44014       1500   72 76  350/ 17/ 21 1014.5    5/ 8   3/ 8
DUCK             1500   74 74  350/ 15/ 16 1014.8
2E DUCK          1400                        N/A     2/ 9
OREGON INLET     1500   76 75  350/  9/ 14 1015.3
BUOY 44095       1500      74                N/A     4/ 9   2/11
20E OREGON INLET NOT AVBL
HATTERAS CG      NOT AVBL
DIAMOND BUOY     1500   76     300/ 10/ 14 1015.0    6/ 6   5/ 6
CAPE LOOKOUT     1400   76     340/  7/  9 1015.2
BEAUFORT LAB     1500   77 75  360/ 10/ 14 1015.3
30 SE NEW RIVER  1500   77 82  360/ 12/ 16 1015.3    5/ 6   3/ 6
5 SE WRIGHTSVILL 1400   73 79   10/ 14/ 16   N/A
BUOY 41002       1450   80 81  280/  4/  4 1018.4    5/ 8   5/ 8
BUOY 41004       1500   81 81  280/ 14/ 14 1016.4    4/ 5   2/ 8

$$



USA.gov is the U.S. government's official web portal to all federal, state and local government web resources and services.